EN

Hourly Weather Trepolskiy

Today, 16 May, Sunday

Time Temperature Precipitation Wind Pressure Humidity
00:00 +13°C° 0 mm 3 mps 743 mmHg 91%
01:00 +13°C° 0 mm 3 mps 744 mmHg 92%
02:00 +12°C° 0 mm 3 mps 744 mmHg 93%
03:00 +12°C° 0 mm 3 mps 744 mmHg 94%
04:00 +12°C° 0 mm 3 mps 744 mmHg 93%
05:00 +14°C° 0 mm 2 mps 744 mmHg 92%
06:00 +14°C° 0 mm 2 mps 745 mmHg 92%
07:00 +16°C° 0 mm 3 mps 745 mmHg 86%
08:00 +17°C° 0 mm 3 mps 745 mmHg 79%
09:00 +19°C° 0 mm 3 mps 745 mmHg 73%
10:00 +20°C° 0.1 mm 3 mps 745 mmHg 68%
11:00 +21°C° 0.1 mm 4 mps 746 mmHg 64%
12:00 +22°C° 0.1 mm 4 mps 746 mmHg 59%
13:00 +22°C° 0.1 mm 4 mps 746 mmHg 57%
14:00 +23°C° 0.1 mm 4 mps 746 mmHg 56%
15:00 +23°C° 0.1 mm 4 mps 745 mmHg 54%
16:00 +22°C° 0 mm 3 mps 745 mmHg 59%
17:00 +23°C° 0 mm 2 mps 745 mmHg 64%
18:00 +23°C° 0 mm 2 mps 745 mmHg 69%
19:00 +20°C° 0 mm 2 mps 745 mmHg 72%
20:00 +20°C° 0 mm 1 mps 745 mmHg 74%
21:00 +18°C° 0 mm 1 mps 745 mmHg 76%
22:00 +18°C° 0 mm 1 mps 746 mmHg 76%
23:00 +16°C° 0 mm 1 mps 746 mmHg 77%

Tomorrow, 17 May, Monday

Time Temperature Precipitation Wind Pressure Humidity
00:00 +16°C° 0 mm 1 mps 746 mmHg 78%
01:00 +15°C° 0 mm 1 mps 746 mmHg 79%
02:00 +15°C° 0 mm 2 mps 746 mmHg 81%
03:00 +14°C° 0 mm 2 mps 746 mmHg 83%
04:00 +15°C° 0.2 mm 2 mps 746 mmHg 84%
05:00 +15°C° 0.2 mm 2 mps 746 mmHg 86%
06:00 +14°C° 0.2 mm 3 mps 746 mmHg 88%
07:00 +17°C° 0 mm 3 mps 746 mmHg 84%
08:00 +19°C° 0 mm 4 mps 746 mmHg 79%
09:00 +20°C° 0 mm 5 mps 746 mmHg 75%
10:00 +22°C° 0 mm 5 mps 745 mmHg 72%
11:00 +23°C° 0 mm 6 mps 745 mmHg 68%
12:00 +24°C° 0 mm 6 mps 745 mmHg 64%
13:00 +26°C° 0 mm 6 mps 745 mmHg 64%
14:00 +26°C° 0 mm 6 mps 744 mmHg 63%
15:00 +27°C° 0 mm 5 mps 744 mmHg 63%
16:00 +26°C° 0 mm 5 mps 744 mmHg 65%
17:00 +25°C° 0 mm 5 mps 744 mmHg 67%
18:00 +25°C° 0 mm 5 mps 743 mmHg 70%
19:00 +22°C° 0 mm 5 mps 743 mmHg 75%
20:00 +21°C° 0 mm 5 mps 743 mmHg 79%
21:00 +19°C° 0 mm 5 mps 743 mmHg 84%
22:00 +19°C° 0 mm 5 mps 743 mmHg 83%
23:00 +17°C° 0 mm 5 mps 743 mmHg 82%

Day after tomorrow, 18 May, Tuesday

Time Temperature Precipitation Wind Pressure Humidity
00:00 +17°C° 0 mm 5 mps 743 mmHg 80%
01:00 +17°C° 0 mm 5 mps 742 mmHg 77%
02:00 +16°C° 0 mm 5 mps 742 mmHg 74%
03:00 +16°C° 0 mm 5 mps 742 mmHg 71%
04:00 +16°C° 0 mm 5 mps 742 mmHg 72%
05:00 +15°C° 0 mm 5 mps 742 mmHg 73%
06:00 +15°C° 0 mm 5 mps 742 mmHg 74%
07:00 +17°C° 0 mm 5 mps 742 mmHg 71%
08:00 +19°C° 0 mm 5 mps 742 mmHg 67%
09:00 +21°C° 0 mm 6 mps 742 mmHg 64%
10:00 +22°C° 0 mm 6 mps 742 mmHg 61%
11:00 +23°C° 0 mm 6 mps 742 mmHg 58%
12:00 +26°C° 0 mm 7 mps 742 mmHg 55%
13:00 +26°C° 0 mm 6 mps 742 mmHg 56%
14:00 +27°C° 0 mm 6 mps 742 mmHg 57%
15:00 +27°C° 0 mm 6 mps 742 mmHg 58%
16:00 +26°C° 0 mm 6 mps 741 mmHg 61%
17:00 +24°C° 0 mm 6 mps 741 mmHg 64%
18:00 +24°C° 0 mm 6 mps 740 mmHg 67%
19:00 +22°C° 0 mm 5 mps 740 mmHg 72%
20:00 +21°C° 0 mm 5 mps 740 mmHg 77%
21:00 +20°C° 0 mm 4 mps 740 mmHg 82%
22:00 +19°C° 0 mm 4 mps 741 mmHg 85%
23:00 +18°C° 0 mm 3 mps 741 mmHg 87%

19 May, Wednesday

Time Temperature Precipitation Wind Pressure Humidity
00:00 +17°C° 0 mm 3 mps 741 mmHg 90%
01:00 +17°C° 0 mm 3 mps 740 mmHg 89%
02:00 +17°C° 0 mm 3 mps 740 mmHg 89%
03:00 +17°C° 0 mm 3 mps 740 mmHg 88%
04:00 +17°C° 0 mm 2 mps 740 mmHg 88%
05:00 +17°C° 0 mm 2 mps 739 mmHg 87%
06:00 +17°C° 0 mm 2 mps 739 mmHg 86%
07:00 +18°C° 0 mm 3 mps 739 mmHg 81%
08:00 +19°C° 0 mm 3 mps 740 mmHg 76%
09:00 +21°C° 0 mm 4 mps 740 mmHg 70%
10:00 +21°C° 0 mm 5 mps 740 mmHg 68%
11:00 +22°C° 0 mm 5 mps 740 mmHg 66%
12:00 +23°C° 0 mm 5 mps 740 mmHg 64%
13:00 +22°C° 0.1 mm 6 mps 740 mmHg 67%
14:00 +22°C° 0.1 mm 6 mps 740 mmHg 70%
15:00 +21°C° 0.1 mm 7 mps 739 mmHg 73%
16:00 +21°C° 0.3 mm 7 mps 739 mmHg 75%
17:00 +20°C° 0.3 mm 7 mps 739 mmHg 78%
18:00 +20°C° 0.3 mm 6 mps 739 mmHg 81%
19:00 +17°C° 0.1 mm 6 mps 739 mmHg 84%
20:00 +16°C° 0.1 mm 5 mps 739 mmHg 87%
21:00 +15°C° 0.1 mm 5 mps 738 mmHg 90%
22:00 +14°C° 0 mm 5 mps 739 mmHg 91%
23:00 +13°C° 0 mm 4 mps 739 mmHg 93%

20 May, Thursday

Time Temperature Precipitation Wind Pressure Humidity
00:00 +12°C° 0 mm 4 mps 739 mmHg 95%
01:00 +12°C° 0 mm 4 mps 739 mmHg 96%
02:00 +11°C° 0 mm 4 mps 739 mmHg 96%
03:00 +11°C° 0 mm 4 mps 739 mmHg 97%
04:00 +11°C° 0 mm 4 mps 739 mmHg 95%
05:00 +11°C° 0 mm 4 mps 739 mmHg 93%
06:00 +10°C° 0 mm 5 mps 739 mmHg 91%
07:00 +10°C° 0.2 mm 5 mps 739 mmHg 91%
08:00 +10°C° 0.2 mm 5 mps 739 mmHg 91%
09:00 +10°C° 0.2 mm 5 mps 739 mmHg 90%
10:00 +11°C° 0.3 mm 6 mps 739 mmHg 88%
11:00 +11°C° 0.3 mm 7 mps 739 mmHg 86%
12:00 +12°C° 0.3 mm 8 mps 740 mmHg 84%
13:00 +11°C° 0.1 mm 8 mps 740 mmHg 85%
14:00 +11°C° 0.1 mm 7 mps 741 mmHg 85%
15:00 +10°C° 0.1 mm 7 mps 741 mmHg 86%
16:00 +11°C° 0.1 mm 7 mps 741 mmHg 84%
17:00 +11°C° 0.1 mm 8 mps 742 mmHg 82%
18:00 +11°C° 0.1 mm 8 mps 742 mmHg 80%
19:00 +11°C° 0 mm 8 mps 743 mmHg 80%
20:00 +10°C° 0 mm 7 mps 744 mmHg 80%
21:00 +9°C° 0 mm 7 mps 744 mmHg 80%
22:00 +9°C° 0 mm 6 mps 745 mmHg 82%
23:00 +8°C° 0 mm 5 mps 745 mmHg 84%

21 May, Friday

Time Temperature Precipitation Wind Pressure Humidity
00:00 +8°C° 0 mm 4 mps 746 mmHg 86%
01:00 +7°C° 0 mm 4 mps 746 mmHg 88%
02:00 +8°C° 0 mm 3 mps 747 mmHg 91%
03:00 +7°C° 0 mm 3 mps 747 mmHg 93%
04:00 +8°C° 0 mm 2 mps 747 mmHg 91%
05:00 +9°C° 0 mm 1 mps 747 mmHg 88%
06:00 +9°C° 0 mm 0 mps 748 mmHg 86%
07:00 +11°C° 0 mm 1 mps 747 mmHg 81%
08:00 +13°C° 0 mm 2 mps 747 mmHg 75%
09:00 +13°C° 0 mm 4 mps 747 mmHg 70%
10:00 +12°C° 1 mm 4 mps 747 mmHg 78%
11:00 +12°C° 1 mm 4 mps 746 mmHg 86%
12:00 +10°C° 1 mm 5 mps 746 mmHg 93%
13:00 +11°C° 0.1 mm 6 mps 745 mmHg 90%
14:00 +14°C° 0.1 mm 7 mps 744 mmHg 86%
15:00 +15°C° 0.1 mm 7 mps 743 mmHg 83%
16:00 +16°C° 0.2 mm 7 mps 742 mmHg 83%
17:00 +17°C° 0.2 mm 7 mps 741 mmHg 84%
18:00 +19°C° 0.2 mm 6 mps 740 mmHg 84%
19:00 +17°C° 0.5 mm 6 mps 739 mmHg 87%
20:00 +17°C° 0.5 mm 5 mps 739 mmHg 89%
21:00 +16°C° 0.5 mm 5 mps 738 mmHg 92%
22:00 +15°C° 0.1 mm 4 mps 738 mmHg 93%
23:00 +15°C° 0.1 mm 4 mps 738 mmHg 93%
Show more

We Need Your Consent

Meteoprog and our Service Providers may store and access personal data such as cookies, device identifiers or other similar technologies on your device and process such data to personalise content and ads, as well as provide social media features and to analyse the traffic.

  • Store and/or access information on your device

    Cookies, device identifiers or other information can be stored or accessed on your device for the purposes indicated above.

  • Personalised ads and content, ad and content measurement, audience insights, and products development

    Ads and content can be personalised based on a profile. More data can be added to better personalise ads and content. Ad and content performance can be measured. Insights about the audience who saw the ads and content can be derived. Such data can be used to develop or improve user’s experience, systems and software.

By clicking ‘I Agree’ you will allow the use of indicated cookies, device identifiers, web beacons or other similar technologies. Your settings can be changed in the browser on your device.

For certain purposes, legitimate interests may be relied on, rather than consent. You can read more about this in our Privacy and Cookie Policy.